Погода в Красномыльском

Россия / Курганская область     56°05′40″N   63°27′08″E
темп.,
°C
ветер,
м/с
пор.,
м/с
влажн.,
%
обл.,
%
осадки,
мм/ч
давл.,
гПа
погр.,
м
9 мая, вс
вс923:00+15ссз123799 0.0 101510
02:00+13с2242100 0.0 101513
05:00+13ссв3343100 0.0 101538
08:00+16всв354195 0.0 1015241
11:00+21всв5731100 0.0 10151273
14:00+23всв6825100 0.0 10153005
17:00+22всв4729100 0.0 10151772
20:00+17юв4751100 0.2 1017244
10 мая, пн
пн1023:00+14св2263100 0.3 101819
02:00+12св386997 0.0 1020149
05:00+11св4966100 0.0 1021189
08:00+14всв684993 0.0 1022544
11:00+17всв673588 0.0 10231322
14:00+19всв672899 0.0 10231627
17:00+19всв5627100 0.0 10241750
20:00+15всв354259 0.0 102582
11 мая, вт
вт1123:00+11в33465 0.0 102628
02:00+10в12484 0.0 102710
05:00+8в12550 0.0 102710
08:00+14вюв11425 0.0 1028254
11:00+19ююв1129100 0.0 10281408
14:00+21зсз2125100 0.0 10281710
17:00+21зсз2225100 0.0 10281734
20:00+17зсз2239100 0.0 102824
12 мая, ср
ср1223:00+15з223993 0.0 102820
02:00+12зсз344693 0.0 102847
05:00+11сз347143 0.0 102861
08:00+15ссз46755 0.0 1029479
11:00+18с6647100 0.0 10291335
14:00+20с5630100 0.0 10281696
17:00+20с5637100 0.0 10281774
20:00+17с2251100 0.0 102716
13 мая, чт
чт1323:00+13всв226164 0.0 102821
02:00+12сз006138 0.0 102810
05:00+11з226663 0.0 102718
08:00+16зсз355469 0.0 1027288
11:00+22сз46435 0.0 10261610
14:00+25ссз56345 0.0 10242196
17:00+26ссз57317 0.0 10242537
20:00+22ссз33455 0.0 102437